N6MDS Weather Reports


Display with metric or nautical units.
time (UTC)temp
F
wind
direction
speed
MPH
gust
MPH
rain 1hr
in
rain 24hr
in
rain mn
in
humidity
%
barometer
mb
20240304085506 35 53 0.0 0.0 0.00 0.12 0.00 89 1021.0
20240304085007 35 53 0.0 0.0 0.00 0.12 0.00 89 1021.0
20240304084503 35 53 0.0 0.0 0.00 0.12 0.00 89 1020.9
20240304083505 35 53 0.0 0.0 0.00 0.13 0.00 89 1021.2
20240304083007 35 53 0.0 0.0 0.00 0.14 0.00 89 1021.2
20240304082503 35 53 0.0 0.0 0.00 0.15 0.00 89 1021.3
20240304082005 35 53 0.0 0.0 0.00 0.15 0.00 89 1021.3
20240304081506 35 53 0.0 0.0 0.00 0.16 0.00 89 1021.3
20240304080502 35 53 0.0 0.0 0.00 0.19 0.00 89 1021.3
20240304075005 35 53 0.0 0.0 0.00 2.05 0.00 89 1021.2
20240304074507 35 53 0.0 0.0 0.00 2.07 0.00 89 1021.2
20240304073004 35 53 0.0 0.0 0.00 0.31 0.28 90 1021.2
20240304072007 34 53 0.0 0.0 0.00 0.34 0.28 89 1021.0
20240304071508 34 53 0.0 0.0 0.00 0.36 0.28 89 1021.1
20240304071003 34 53 0.0 0.0 0.00 0.38 0.28 89 1021.0
20240304070506 34 53 0.0 0.0 0.00 0.41 0.28 89 1021.1
20240304070008 34 53 0.0 0.0 0.00 0.42 0.28 89 1021.1
20240304065503 34 53 0.0 0.0 0.00 0.42 0.28 89 1021.0
20240304065005 34 53 0.0 0.0 0.00 0.44 0.28 89 1020.9
20240304064507 34 53 0.0 0.0 0.00 0.47 0.28 89 1021.0
20240304064003 34 53 0.0 0.0 0.00 0.48 0.28 89 1020.9
20240304063006 35 53 0.0 0.0 0.00 0.52 0.28 89 1021.0
20240304062508 35 53 0.0 0.0 0.00 0.53 0.28 89 1020.9
20240304061504 35 53 0.0 0.0 0.00 0.56 0.28 89 1020.9
20240304061006 35 53 0.0 0.0 0.00 0.58 0.28 89 1020.7
20240304060503 35 53 0.0 0.0 0.00 0.61 0.28 89 1020.7
20240304060005 35 53 0.0 0.0 0.00 0.64 0.28 89 1020.6
20240304055507 35 53 0.0 0.0 0.00 0.65 0.28 90 1020.6
20240304055003 35 53 0.0 0.0 0.00 0.67 0.28 90 1020.5
20240304054505 35 53 0.0 0.0 0.00 0.67 0.28 90 1020.6
20240304053507 34 53 0.0 0.0 0.00 0.69 0.28 89 1020.6
20240304053003 34 53 0.0 0.0 0.00 0.70 0.28 89 1020.4
20240304052505 34 53 0.0 0.0 0.00 0.71 0.28 89 1020.5
20240304052008 34 53 0.0 0.0 0.00 0.71 0.28 89 1020.5
20240304051503 35 53 0.0 0.0 0.00 0.72 0.28 88 1020.4
20240304051005 35 53 0.0 0.0 0.00 0.74 0.28 89 1020.4
20240304050008 35 53 0.0 0.0 0.00 0.76 0.28 89 1020.2
20240304045504 34 53 0.0 0.0 0.00 0.77 0.28 89 1020.3
20240304045006 34 52 0.0 0.0 0.00 0.77 0.28 89 1020.3
20240304044502 34 52 0.0 0.0 0.00 0.79 0.28 89 1020.2
20240304044004 34 52 0.0 0.0 0.00 0.81 0.28 89 1020.0
20240304043506 34 52 0.0 0.0 0.00 0.82 0.28 89 1019.9
20240304043008 34 52 0.0 0.0 0.00 0.83 0.28 88 1019.8
20240304042504 34 52 0.0 0.0 0.00 0.83 0.28 89 1019.7
20240304042007 34 52 0.0 0.0 0.00 0.84 0.28 89 1019.7
20240304041507 34 52 4.0 4.0 0.00 0.85 0.28 88 1019.5
20240304041003 34 53 2.0 5.0 0.00 0.87 0.28 88 1019.6
20240304040005 35 57 2.0 3.0 0.00 0.87 0.28 87 1019.6
20240304035507 35 109 0.0 2.0 0.00 0.87 0.28 87 1019.5
20240304035003 35 163 0.0 0.0 0.00 0.87 0.28 87 1019.6
20240304034005 35 169 0.0 0.0 0.00 0.87 0.28 92 1019.6
20240304033007 35 266 0.0 0.0 0.00 0.88 0.28 87 1019.8
20240304032503 35 267 0.0 0.0 0.00 0.88 0.28 87 1020.0
20240304032006 36 266 0.0 0.0 0.00 0.89 0.28 87 1019.9
20240304031507 36 265 0.0 0.0 0.00 0.90 0.28 87 1019.9
20240304031003 36 265 0.0 0.0 0.00 0.91 0.28 86 1019.9
20240304030505 36 265 0.0 0.0 0.00 0.92 0.28 86 1019.8
20240304030008 36 265 0.0 0.0 0.00 0.92 0.28 86 1019.8
20240304025504 37 265 0.0 0.0 0.00 0.93 0.28 86 1019.8
20240304025005 37 265 0.0 0.0 0.00 0.94 0.28 86 1019.8
20240304024507 37 264 0.0 0.0 0.00 0.95 0.28 86 1019.7
20240304023504 37 265 0.0 0.0 0.00 0.96 0.28 85 1019.5
20240304023006 37 265 0.0 0.0 0.00 0.97 0.28 86 1019.5
20240304022502 37 265 0.0 0.0 0.00 0.97 0.28 85 1019.5
20240304022004 37 265 0.0 0.0 0.00 0.97 0.28 84 1019.5
20240304021540 38 265 0.0 0.0 0.00 0.98 0.28 83 1019.4
20240304020002 39 265 0.0 0.0 0.00 0.99 0.28 81 1019.1
20240304015505 39 265 0.0 0.0 0.00 0.99 0.28 80 1019.1
20240304015007 40 264 0.0 0.0 0.00 1.00 0.28 80 1019.0
20240304014504 40 264 0.0 0.0 0.00 1.00 0.28 79 1019.1
20240304014005 40 263 0.0 0.0 0.00 1.00 0.28 80 1019.1
20240304013008 41 159 0.0 0.0 0.00 1.00 0.28 77 1019.0
20240304012504 41 159 0.0 0.0 0.00 1.00 0.28 77 1019.0
20240304011507 43 159 0.0 0.0 0.00 1.00 0.28 74 1018.8
20240304011008 43 159 0.0 0.0 0.00 1.00 0.28 71 1018.8
20240304010504 43 159 0.0 0.0 0.00 1.00 0.28 64 1018.9
20240304005506 43 159 0.0 0.0 0.00 1.00 0.28 63 1018.8
20240304005002 43 159 0.0 0.0 0.00 1.00 0.28 66 1018.8
20240304004505 43 158 0.0 0.0 0.00 1.00 0.28 65 1018.7
20240304004006 43 157 2.0 4.0 0.00 1.00 0.28 63 1018.8
20240304003503 44 159 2.0 4.0 0.00 1.00 0.28 62 1018.9
20240304003005 44 178 0.0 0.0 0.00 1.00 0.28 66 1019.0
20240304002507 44 221 0.0 0.0 0.00 1.00 0.28 62 1018.9
20240304001504 43 250 0.0 0.0 0.00 1.00 0.28 65 1019.0
20240304000506 43 264 0.0 0.0 0.00 1.00 0.28 66 1018.9
20240304000008 43 263 5.0 7.0 0.00 1.00 0.28 68 1018.9
20240303235504 43 226 2.0 4.0 0.00 1.00 0.28 64 1018.9
20240303235006 42 183 1.0 2.0 0.00 1.00 0.28 65 1018.9
20240303234002 43 211 6.0 10.0 0.00 1.00 0.28 65 1018.9
20240303233505 43 222 4.0 6.0 0.00 1.00 0.28 65 1018.9
20240303233007 43 202 0.0 0.0 0.00 1.00 0.28 69 1018.9
20240303232503 42 241 3.0 5.0 0.00 1.00 0.28 69 1018.9
20240303232005 42 259 5.0 6.0 0.00 1.00 0.28 70 1018.9
20240303231507 42 272 4.0 6.0 0.00 1.00 0.28 71 1018.9
20240303231003 42 246 5.0 7.0 0.00 1.00 0.28 73 1019.1
20240303230505 42 258 7.0 12.0 0.00 1.00 0.28 75 1019.1
20240303230007 42 275 4.0 5.0 0.00 1.00 0.28 71 1019.0
20240303225504 42 261 6.0 10.0 0.00 1.00 0.28 75 1019.1
20240303225006 42 257 2.0 4.0 0.00 1.00 0.28 72 1019.1
20240303224502 42 244 1.0 5.0 0.00 1.00 0.28 67 1019.1
20240303224005 42 217 0.0 0.0 0.00 1.00 0.28 66 1019.1
20240303223506 42 217 0.0 0.0 0.00 1.00 0.28 66 1019.1
20240303223003 42 217 0.0 0.0 0.00 1.00 0.28 63 1019.1
20240303222505 41 217 0.0 0.0 0.00 1.00 0.28 63 1019.1
20240303221502 42 215 0.0 0.0 0.00 1.00 0.28 62 1019.0
20240303221004 42 215 0.0 0.0 0.00 1.00 0.28 63 1019.1
20240303220506 42 215 0.0 0.0 0.00 1.00 0.28 62 1019.1
20240303220002 42 215 0.0 0.0 0.00 1.00 0.28 63 1019.1
20240303215004 42 215 0.0 3.0 0.00 1.00 0.28 63 1019.2
20240303214506 42 214 0.0 0.0 0.00 1.00 0.28 62 1019.3
20240303214003 42 214 0.0 0.0 0.00 1.00 0.28 61 1019.3
20240303213505 42 214 0.0 0.0 0.00 1.00 0.28 62 1019.3
20240303213007 43 196 4.0 5.0 0.00 1.00 0.28 60 1019.3
20240303212503 43 161 1.0 4.0 0.00 1.00 0.28 61 1019.3
20240303212005 43 219 0.0 0.0 0.00 1.00 0.28 62 1019.3
20240303211007 43 220 0.0 0.0 0.00 1.00 0.28 64 1019.4
20240303210503 42 219 0.0 0.0 0.00 1.00 0.28 64 1019.5
20240303210005 43 223 0.0 0.0 0.00 1.00 0.28 63 1019.5
20240303205008 42 204 0.0 0.0 0.00 1.00 0.28 66 1019.6
20240303204504 42 208 0.0 0.0 0.00 1.00 0.28 67 1019.8
20240303204006 42 208 0.0 0.0 0.00 1.00 0.28 68 1019.9
20240303203502 42 208 0.0 0.0 0.00 1.00 0.28 70 1020.0
20240303203004 41 207 0.0 0.0 0.00 1.00 0.28 72 1020.1
20240303202507 40 207 0.0 0.0 0.00 1.00 0.28 74 1020.2
20240303201504 40 207 1.0 3.0 0.00 1.00 0.28 73 1020.4
20240303201005 41 204 0.0 0.0 0.00 1.00 0.28 70 1020.3
20240303200002 43 202 0.0 0.0 0.00 1.01 0.28 70 1020.4
20240303195005 42 152 0.0 0.0 0.00 1.01 0.28 76 1020.5
20240303194507 42 163 0.0 0.0 0.00 1.02 0.28 75 1020.6
20240303194003 41 86 0.0 0.0 0.00 1.02 0.28 76 1020.7
20240303193506 40 24 0.0 0.0 0.00 1.02 0.28 76 1020.8
20240303193002 40 355 0.0 0.0 0.00 1.02 0.28 78 1020.9
20240303192504 39 270 0.0 0.0 0.00 1.02 0.28 76 1021.0
20240303192006 39 270 0.0 0.0 0.00 1.02 0.28 75 1021.0
20240303191502 40 290 0.0 0.0 0.00 1.02 0.28 79 1021.1
20240303191004 40 295 0.0 0.0 0.00 1.02 0.28 82 1021.2
20240303190506 40 294 0.0 0.0 0.00 1.02 0.28 83 1021.1
20240303190002 39 294 0.0 0.0 0.00 1.02 0.28 82 1021.0
20240303185504 39 294 0.0 0.0 0.00 1.03 0.28 79 1021.0
20240303185006 39 294 0.0 0.0 0.00 1.03 0.28 77 1021.0
20240303184002 40 294 0.0 0.0 0.00 1.03 0.28 77 1021.0
20240303183505 40 306 0.0 0.0 0.00 1.04 0.28 79 1021.0
20240303183007 40 24 0.0 0.0 0.00 1.05 0.28 82 1021.0
20240303182503 40 24 0.0 0.0 0.00 1.06 0.28 81 1021.0
20240303181506 40 55 0.0 0.0 0.00 1.06 0.28 81 1020.9
20240303181007 40 55 0.0 0.0 0.00 1.07 0.28 79 1020.9
20240303180503 40 55 0.0 0.0 0.00 1.07 0.28 80 1020.9
20240303180005 40 55 0.0 0.0 0.00 1.07 0.28 84 1020.8
20240303175507 39 55 0.0 1.0 0.00 1.07 0.28 84 1020.7
20240303175003 39 52 0.0 0.0 0.00 1.07 0.28 86 1020.7
20240303174505 38 53 1.0 3.0 0.00 1.07 0.28 88 1020.7
20240303173508 36 267 0.0 0.0 0.00 1.08 0.28 90 1020.7
20240303173004 36 267 0.0 0.0 0.00 1.08 0.28 89 1020.7
20240303172506 36 269 0.0 0.0 0.00 1.09 0.28 90 1020.8
20240303172010 36 271 0.0 0.0 0.00 1.10 0.28 91 1020.7
20240303171504 36 271 0.0 0.0 0.00 1.10 0.28 92 1020.8
20240303171039 36 296 0.0 0.0 0.00 1.10 0.28 94 1020.7
20240303170507 35 296 0.0 0.0 0.00 1.11 0.28 94 1020.8
20240303170003 34 296 0.0 0.0 0.00 1.11 0.28 94 1020.7
20240303165506 34 296 0.0 0.0 0.00 1.11 0.28 94 1020.8
20240303165002 33 296 0.0 0.0 0.00 1.11 0.28 93 1020.8
20240303164504 32 296 0.0 0.0 0.00 1.11 0.28 93 1020.8
20240303163506 32 296 0.0 0.0 0.00 1.12 0.28 93 1020.6
20240303163002 32 296 0.0 0.0 0.00 1.12 0.28 93 1020.5
20240303162505 32 296 0.0 0.0 0.00 1.12 0.28 93 1020.5
20240303162007 32 296 0.0 0.0 0.00 1.12 0.28 93 1020.4
20240303161503 32 284 2.0 3.0 0.00 1.12 0.28 93 1020.4
20240303161005 32 256 0.0 0.0 0.00 1.12 0.28 93 1020.3
20240303160507 32 256 0.0 0.0 0.00 1.12 0.28 92 1020.2
20240303154506 32 256 0.0 0.0 0.00 1.12 0.28 92 1020.0
20240303154002 32 256 0.0 0.0 0.00 1.12 0.28 92 1020.1
20240303153504 32 256 0.0 0.0 0.00 1.12 0.28 93 1020.0
20240303153007 32 256 0.0 0.0 0.00 1.12 0.28 92 1020.0
20240303152503 32 256 0.0 0.0 0.00 1.12 0.28 93 1019.8
20240303152004 32 0 0.0 0.0 0.00 1.12 0.28 93 1019.8
20240303151507 32 254 0.0 0.0 0.00 1.12 0.28 92 1019.8
20240303151003 32 254 0.0 0.0 0.00 1.12 0.28 92 1019.6
20240303150504 32 256 0.0 0.0 0.00 1.12 0.28 92 1019.6
20240303150006 32 256 0.0 0.0 0.00 1.12 0.28 92 1019.5
20240303144505 32 256 0.0 0.0 0.00 1.13 0.28 92 1019.3
20240303144007 32 256 0.0 0.0 0.00 1.13 0.28 93 1019.3
20240303143503 32 256 0.0 0.0 0.00 1.13 0.28 93 1019.3
20240303143005 31 256 0.0 0.0 0.00 1.14 0.28 93 1019.1
20240303142508 31 256 0.0 0.0 0.00 1.13 0.27 93 1019.1
20240303142004 31 256 0.0 0.0 0.00 1.14 0.27 93 1019.0
20240303141506 31 256 0.0 0.0 0.00 1.15 0.27 93 1018.9
20240303141008 31 254 0.0 0.0 0.00 1.15 0.27 93 1018.8
20240303140504 31 256 0.0 0.0 0.00 1.16 0.26 93 1018.7
20240303140006 31 256 0.0 0.0 0.00 1.16 0.25 93 1018.8
20240303135508 31 256 2.0 4.0 0.00 1.17 0.24 93 1018.6
20240303135004 31 0 1.0 3.0 0.00 1.20 0.24 93 1018.5
20240303134007 31 256 0.0 0.0 0.00 1.26 0.23 92 1018.3
20240303133503 31 257 2.0 4.0 0.00 1.28 0.22 92 1018.2
20240303133005 31 0 4.0 5.0 0.00 1.30 0.22 92 1018.2
20240303132507 32 262 4.0 5.0 0.00 1.30 0.22 91 1018.0
20240303132004 32 279 0.0 0.0 0.00 1.29 0.21 91 1017.9
20240303131506 32 214 1.0 3.0 0.00 1.29 0.21 92 1017.8
20240303131002 32 117 0.0 0.0 0.00 1.29 0.21 92 1017.5
20240303130503 32 117 0.0 0.0 0.00 1.28 0.20 92 1017.5
20240303130005 32 117 0.0 0.0 0.00 1.28 0.20 92 1017.4
20240303125508 32 117 1.0 3.0 0.00 1.29 0.20 92 1017.3
20240303125004 32 117 0.0 0.0 0.00 1.33 0.20 92 1017.3
20240303124007 32 117 0.0 0.0 0.00 1.34 0.20 92 1017.1
20240303123503 32 117 0.0 0.0 0.00 1.33 0.19 92 1017.0
20240303122505 32 117 0.0 0.0 0.00 1.32 0.18 91 1017.0
20240303122008 32 117 0.0 0.0 0.00 1.31 0.17 91 1017.1
20240303121504 32 117 0.0 0.0 0.00 1.31 0.17 92 1017.0
20240303121005 32 117 0.0 0.0 0.00 1.31 0.17 92 1016.9
20240303120507 32 117 0.0 0.0 0.00 1.31 0.17 92 1016.9
20240303120003 32 117 0.0 0.0 0.00 1.31 0.17 92 1016.9
20240303115505 32 117 0.0 0.0 0.00 1.31 0.17 91 1016.9
20240303115007 32 117 0.0 0.0 0.00 1.31 0.17 92 1016.8
20240303114503 32 117 2.0 3.0 0.00 1.32 0.17 91 1016.9
20240303114006 32 117 0.0 0.0 0.00 1.33 0.17 91 1016.8
20240303113507 32 117 0.0 0.0 0.00 1.33 0.17 91 1016.9
20240303113003 32 117 0.0 0.0 0.00 1.33 0.17 91 1016.7
20240303112506 33 117 0.0 0.0 0.00 1.34 0.17 91 1016.6
20240303112002 33 117 0.0 0.0 0.00 1.36 0.17 91 1016.6
20240303111504 33 117 0.0 0.0 0.00 1.37 0.17 91 1016.7
20240303111006 33 33 0.0 0.0 0.00 1.40 0.17 90 1016.6
20240303110007 33 34 0.0 0.0 0.00 1.41 0.17 91 1016.9
20240303105504 33 34 0.0 0.0 0.00 1.42 0.17 91 1016.8
20240303105006 33 33 0.0 0.0 0.00 1.43 0.17 91 1016.8
20240303104008 33 34 0.0 0.0 0.00 1.45 0.17 91 1016.9
20240303103504 33 33 0.0 0.0 0.00 1.47 0.17 91 1017.0
20240303103006 33 33 0.0 0.0 0.00 1.50 0.17 91 1016.9
20240303102003 33 34 0.0 0.0 0.00 1.54 0.17 91 1017.0
20240303101505 32 34 0.0 0.0 0.00 1.58 0.16 91 1016.8
20240303100506 32 34 0.0 0.0 0.00 1.65 0.16 91 1016.8
20240303100008 32 34 0.0 0.0 0.00 1.67 0.16 91 1016.7
20240303095504 32 33 0.0 0.0 0.00 1.69 0.16 91 1016.8
20240303093006 32 33 0.0 0.0 0.00 1.95 0.16 92 1016.9
20240303092502 32 350 0.0 0.0 0.00 1.95 0.16 92 1016.9
20240303092004 32 350 0.0 0.0 0.00 1.96 0.16 92 1016.7
20240303091506 32 350 0.0 0.0 0.00 2.00 0.16 92 1016.8
20240303091002 32 350 0.0 0.0 0.00 2.02 0.16 92 1016.9
20240303090504 32 355 0.0 0.0 0.00 2.04 0.16 92 1016.9